Regional Weather Roundup
Issued by NWS

Home | Current Version | Previous Version | Graphics & Text | Print | Product List | Glossary On
Versions: 1 2 3 4 5 6 7 8 9 10 11 12 13 14 15 16 17 18 19 20 21 22 23 24 25 26 27 28 29 30 31 32 33 34 35 36 37 38 39 40 41 42 43 44 45 46 47 48 49 50
000
ASUS45 KCYS 210210
RWRWY

WYOMING REGIONAL WEATHER ROUNDUP
NATIONAL WEATHER SERVICE CHEYENNE WY
700 PM MST TUE FEB 20 2018

NOTE:  "FAIR" INDICATES FEW OR NO CLOUDS BELOW 12,000 FEET
WITH NO SIGNIFICANT WEATHER AND/OR OBSTRUCTIONS TO VISIBILITY.

WYZ001-210300-
YELLOWSTONE NATIONAL PARK

CITY           SKY/WX    TMP DP  RH WIND       PRES   REMARKS
LK YELLOWSTONE   N/A    -10 -15  78 VRB3      29.90R
W YELLOWSTONE  NOT AVBL

$$
WYZ002>013-054>058-071-098>099-210300-
NORTHERN WYOMING

CITY           SKY/WX    TMP DP  RH WIND       PRES   REMARKS
JACKSON        MOCLDY     4  -4  69 S9        29.99R WCI -10
CODY           FAIR      -8 -13  78 CALM      30.04R
GREYBULL       FAIR     -11 -14  86 N5        30.14R WCI -23
WORLAND        FAIR      -8 -11  86 E5        30.11R WCI -19
SHERIDAN       FAIR      -3 -13  62 CALM      30.13R
BUFFALO        FAIR      -2 -13  59 SW5       30.05R WCI -12
GILLETTE       FAIR      -5 -15  62 SW3       30.11R
HULETT         FAIR       3  -8  60 MISG      30.11R
NEWCASTLE      FAIR      -6 -15  65 N3        30.15R

$$
WYZ014>020-022>026-101>103-210300-
CENTRAL WYOMING

CITY           SKY/WX    TMP DP  RH WIND       PRES   REMARKS
BIG PINEY      FAIR      -1  -4  87 E5        29.98R WCI -11
PINEDALE       FAIR      -4  -8  84 NW3       29.98R
DUBOIS           N/A    N/A N/A N/A MISG        N/A
LANDER         FAIR      -2  -7  79 SW5       30.00R WCI -12
RIVERTON       FAIR      -3 -11  68 CALM      30.02R
CASPER         FAIR       4  -5  66 MISG      30.02R
DOUGLAS        FAIR     -11 -16  78 CALM      30.09R

$$
WYZ021-027>030-104>119-210300-
SOUTHERN WYOMING

CITY           SKY/WX    TMP DP  RH WIND       PRES   REMARKS
EVANSTON       FAIR       5   0  79 SE6       29.99R WCI  -6
FORT BRIDGER   FAIR       7  -1  71 W7        30.02R WCI  -5
ROCK SPRINGS   FAIR       5  -2  72 SW8       30.01R WCI  -8
DIXON          FAIR      -5 -11  77 CALM      30.08R
RAWLINS        FAIR       3  -4  72 W10       30.00R WCI -12
SARATOGA       FAIR       0  -6  78 SW9       30.01R WCI -16
LARAMIE        FAIR       1  -6  72 NE8       29.95R WCI -13
CHEYENNE       FAIR       5   0  79 SW8       30.01R WCI  -8
TORRINGTON     FAIR       3  -3  76 NE7       30.14R WCI  -9
PINE BLUFFS    FAIR      -4  -9  77 MISG      30.09R

$$



USA.gov is the U.S. government's official web portal to all federal, state and local government web resources and services.